STARLINK-1470, 45772

Orbit data source: Space-Track

STARLINK-1470, 45772 is a payload satellite owned by SpaceX/Seattle (US) in LEO that was launched on Sat, 13 Jun 2020 UTC via an FALCON 9 launch vehicle from the Air Force Eastern Test Range (AFETR). Payload-class satellites include a variety of spacecraft equipped with specific instruments for various scientific and technological missions. These include communications satellites like Starlink; space stations such as the ISS; scientific satellites like the Hubble; Earth observation satellites from companies like Planet Labs, Umbra, and HawkEye 360; GPS; miniature CubeSats for education and research; and military/defense satellites.

Loading next visibility...
Identifier
45772, 2020-038AU
Orbit
LEO
Country
Flag of USUS
Related business
Manufacturer
SpaceX/Seattle
Mission
Partially operational Commercial Communications
Bus & Motor
STARLINK, Unknown motor
Mass
260 kg wet, ~248 kg dry
Launch date (UTC)
2020-06-13 (6 years ago)
Launch vehicle
FALCON 9
Launch site
Air Force Eastern Test Range (AFETR)
Object type
Payload
Rocket body
Debris
Shape & HBR
Box + 1 Pan, 10.1 m
Radar Cross Section
13.562 m², Large (>1 m²)

Expand to show TLE details & history
Last TLE update: 2 days ago

TLE from 2 days ago
0 STARLINK-1470
1 45772U 20038AU  26171.07955713  .00033660  00000-0  94510-3 0  9992
2 45772  53.0436  55.9544 0003474  76.8810 283.2580 15.36257974332777
Epoch: 2026-06-20T01:54Z
TLE epoch observation values (Epoch: 2026-06-20T01:54:33.736Z)
Latitude
0.00005°
Longitude
119.01454°
Altitude
457.532 km
Speed
7.64 km/s
True Right ascension
03h 43m 49s
True Declination
0° 00' 00"
Sunlit
Object was in daylight at epoch
Visualization orbit readout
Latitude
Unknown
Longitude
Unknown
Altitude
Unknown
Speed
Unknown
Apparent Right ascension
Unknown
Apparent Declination
Unknown
Sunlit
N/A
Visualization observer readout
Local Sidereal Time
21:36:17
Azimuth
Unknown
Elevation
Unknown
Doppler factor
Unknown
Orbital elements
Apogee altitude
459.837 km
Perigee altitude
455.088 km
Semi-major axis
6,835.599 km
Eccentricity
0.00035
Inclination
53.0436°
RAAN
55.9544°
Arg. of periapsis
76.881°
True anomaly
283.21925°
Mean anomaly
283.258°
Eccentric anomaly
283.23862°
Mean motion
3.84042 °/min
Orbital period
93.74 mins
BSTAR
0.0009451
Loading maneuver chart data...
Computing Atmospheric mass density...

Documentation

Showing up to 5 results
|